Location: Copeville
(33.0796°N, 96.4155°W)
Time: 14:54:57
(UTC+00:00)

NOAA 19 - Visible Passes

Search period start: 01 April 2023 00:00
Search period end: 11 April 2023 00:00
Orbit: 839 x 861 km, 99.1° (Epoch: 01 April)

Date Brightness Start Highest point End Pass type
(mag) Time Alt. Az. Time Alt. Az. Time Alt. Az.
01 Apr 6.3 01:25:31 10° ESE 01:29:54 25° ENE 01:34:17 10° NNE visible
01 Apr 6.6 03:07:13 20° SSW 03:10:18 35° W 03:15:16 10° NNW visible
02 Apr 6.6 01:14:12 10° ESE 01:18:00 20° ENE 01:21:48 10° NNE visible
02 Apr 6.1 02:55:00 22° SSW 02:58:15 46° W 03:03:29 10° NNW visible
03 Apr 5.6 02:42:46 23° S 02:46:12 61° WSW 02:51:37 10° NNW visible
04 Apr 5.2 02:30:32 22° S 02:34:11 80° WSW 02:39:40 10° NNW visible
05 Apr 5.1 02:18:19 20° SSE 02:22:10 79° ENE 02:27:38 10° N visible
06 Apr 5.2 02:06:06 17° SSE 02:10:11 60° ENE 02:15:33 10° N visible
06 Apr 7.8 03:48:26 10° WSW 03:51:08 14° W 03:53:50 10° WNW visible
07 Apr 5.5 01:53:52 14° SE 01:58:13 46° ENE 02:03:24 10° N visible
07 Apr 7.5 03:35:51 12° SW 03:39:00 19° W 03:42:44 10° NW visible
08 Apr 5.8 01:41:38 11° SE 01:46:16 35° ENE 01:51:10 10° N visible
08 Apr 7.1 03:23:38 15° SW 03:26:54 24° W 03:31:16 10° NW visible
09 Apr 6.2 01:29:50 10° SE 01:34:20 27° ENE 01:38:50 10° NNE visible
09 Apr 6.7 03:11:24 17° SSW 03:14:48 32° W 03:19:38 10° NW visible
10 Apr 6.5 01:18:27 10° ESE 01:22:26 21° ENE 01:26:24 10° NNE visible
10 Apr 6.2 02:59:10 19° SSW 03:02:43 42° W 03:07:53 10° NNW visible
